Volver al catálogo

COSMOS 775

ActivoMilitarGEO
NORAD 8357·PAYLOAD·🇷🇺 Russia

Lanzado Oct 8, 1975 desde Baikonur Cosmodrome

Loading…

TLE

ActualizadoSource: Space-Track

Época: Sep 14, 2026, 13:58 UTC

1 08357U 75097A   26257.58229437  .00000147  00000-0  00000-0 0  9995
2 08357   2.1374 258.4550 0010302 199.3419 141.4560  1.00288730132650

Sigue COSMOS 775 en tiempo real con AllMySat

Download on the App Store